AB1IG Weather Reports


Display with metric or nautical units.
time (UTC)temp
F
wind
direction
speed
MPH
gust
MPH
rain 1hr
in
rain 24hr
in
rain mn
in
humidity
%
barometer
mb
20260901044558 86 150 1.0 5.0 0.00 0.00 0.00 42 1010.4
20260901043042 87 219 2.0 5.0 0.00 0.00 0.00 41 1010.3
20260901041541 88 257 1.0 5.0 0.00 0.00 0.00 40 1010.2
20260901040053 88 315 3.0 8.0 0.00 0.00 0.00 39 1010.3
20260901034541 89 228 2.0 7.0 0.00 0.00 0.00 38 1010.2
20260901033040 89 304 1.0 8.0 0.00 0.00 0.00 38 1010.2
20260901031538 89 269 4.0 9.0 0.00 0.00 0.00 37 1010.1
20260901030039 90 125 2.0 6.0 0.00 0.00 0.00 37 1009.9
20260901024547 90 253 2.0 6.0 0.00 0.00 0.00 36 1009.8
20260901023039 90 181 0.0 4.0 0.00 0.00 0.00 36 1009.5
20260901021550 90 133 1.0 8.0 0.00 0.00 0.00 36 1009.2
20260901020039 91 277 1.0 6.0 0.00 0.00 0.00 35 1009.0
20260901014539 91 122 0.0 5.0 0.00 0.00 0.00 35 1008.9
20260901013035 92 295 2.0 7.0 0.00 0.00 0.00 33 1008.8
20260901011534 93 307 0.0 4.0 0.00 0.00 0.00 32 1008.5
20260901010038 93 222 2.0 7.0 0.00 0.00 0.00 31 1008.4
20260901004533 94 204 2.0 7.0 0.00 0.00 0.00 31 1008.2
20260901003037 95 302 1.0 10.0 0.00 0.00 0.00 31 1008.2
20260901001537 97 224 1.0 7.0 0.00 0.00 0.00 30 1008.1
20260901000030 96 133 2.0 9.0 0.00 0.00 0.00 31 1008.1
20260831234533 97 159 2.0 8.0 0.00 0.00 0.00 30 1008.2
20260831233030 98 266 2.0 10.0 0.00 0.00 0.00 29 1008.2
20260831231545 99 111 1.0 7.0 0.00 0.00 0.00 29 1008.1
20260831230031 100 110 2.0 9.0 0.00 0.00 0.00 29 1008.1
20260831224546 100 155 2.0 8.0 0.00 0.00 0.00 29 1008.2
20260831223026 100 284 2.0 10.0 0.00 0.00 0.00 30 1008.2
20260831221528 101 96 4.0 10.0 0.00 0.00 0.00 29 1008.2
20260831220023 100 147 0.0 7.0 0.00 0.00 0.00 30 1008.3
20260831214521 99 136 2.0 8.0 0.00 0.00 0.00 31 1008.4
20260831213020 99 101 3.0 9.0 0.00 0.00 0.00 30 1008.6
20260831211519 100 184 1.0 5.0 0.00 0.00 0.00 29 1008.6
20260831210019 101 159 2.0 7.0 0.00 0.00 0.00 29 1008.8
20260831204518 101 38 1.0 10.0 0.00 0.00 0.00 30 1009.0
20260831203030 102 183 1.0 4.0 0.00 0.00 0.00 29 1009.0
20260831201513 103 219 1.0 6.0 0.00 0.00 0.00 28 1009.2
20260831200009 102 194 2.0 8.0 0.00 0.00 0.00 29 1009.4
20260831194508 101 113 3.0 8.0 0.00 0.00 0.00 29 1009.6
20260831193006 102 169 2.0 9.0 0.00 0.00 0.00 29 1009.7
20260831191600 101 252 0.0 10.0 0.00 0.00 0.00 30 1009.8
20260831190123 100 326 1.0 10.0 0.00 0.00 0.00 30 1010.0
20260831184559 102 148 3.0 7.0 0.00 0.00 0.00 30 1010.1
20260831183056 101 287 3.0 6.0 0.00 0.00 0.00 31 1010.4
20260831181552 100 219 1.0 10.0 0.00 0.00 0.00 31 1010.4
20260831180051 100 94 2.0 9.0 0.00 0.00 0.00 32 1010.6
20260831174549 99 120 2.0 8.0 0.00 0.00 0.00 34 1010.7
20260831173048 99 152 1.0 8.0 0.00 0.00 0.00 35 1010.8
20260831171543 98 205 2.0 9.0 0.00 0.00 0.00 37 1011.1
20260831170041 98 198 2.0 9.0 0.00 0.00 0.00 38 1011.2
20260831164538 97 246 2.0 9.0 0.00 0.00 0.00 39 1011.3
20260831163035 95 136 3.0 8.0 0.00 0.00 0.00 41 1011.4
20260831161533 95 127 1.0 8.0 0.00 0.00 0.00 43 1011.5
20260831160039 94 267 4.0 10.0 0.00 0.00 0.00 43 1011.5
20260831154557 93 126 4.0 8.0 0.00 0.00 0.00 44 1011.5
20260831153026 91 232 2.0 7.0 0.00 0.00 0.00 47 1011.5
20260831151527 90 159 3.0 11.0 0.00 0.00 0.00 48 1011.4
20260831150016 88 27 3.0 9.0 0.00 0.00 0.00 51 1011.5
20260831144514 87 256 3.0 7.0 0.00 0.00 0.00 51 1011.6
20260831143011 86 130 1.0 8.0 0.00 0.00 0.00 53 1011.6
20260831141506 85 259 3.0 8.0 0.00 0.00 0.00 54 1011.7
20260831140005 84 121 1.0 9.0 0.00 0.00 0.00 55 1011.7
20260831134504 83 293 1.0 7.0 0.00 0.00 0.00 55 1011.7
20260831133002 82 288 2.0 6.0 0.00 0.00 0.00 56 1011.5
20260831131501 81 278 3.0 7.0 0.00 0.00 0.00 56 1011.4
20260831130114 80 146 2.0 7.0 0.00 0.00 0.00 57 1011.3
20260831124603 80 181 1.0 4.0 0.00 0.00 0.00 57 1011.2
20260831123058 80 139 1.0 5.0 0.00 0.00 0.00 56 1010.9
20260831121602 80 146 1.0 5.0 0.00 0.00 0.00 56 1010.7
20260831120051 80 91 1.0 5.0 0.00 0.00 0.00 55 1010.4
20260831114653 80 252 1.0 4.0 0.00 0.00 0.00 54 1010.2
20260831113046 80 228 1.0 6.0 0.00 0.00 0.00 53 1010.1
20260831111543 81 100 2.0 6.0 0.00 0.00 0.00 53 1009.9
20260831110041 81 285 1.0 6.0 0.00 0.00 0.00 52 1009.6
20260831104540 81 207 1.0 5.0 0.00 0.00 0.00 52 1009.5
20260831103044 81 149 2.0 8.0 0.00 0.00 0.00 51 1009.6
20260831101538 81 181 1.0 6.0 0.00 0.00 0.00 51 1009.4
20260831100056 82 233 1.0 5.0 0.00 0.00 0.00 50 1009.4
20260831094535 82 239 2.0 5.0 0.00 0.00 0.00 50 1009.4
20260831093044 82 243 2.0 6.0 0.00 0.00 0.00 51 1009.3
20260831091535 81 321 2.0 7.0 0.00 0.00 0.00 51 1009.0
20260831090031 81 234 2.0 7.0 0.00 0.00 0.00 52 1009.0
20260831084531 81 111 1.0 5.0 0.00 0.00 0.00 51 1009.0
20260831083027 82 155 1.0 6.0 0.00 0.00 0.00 50 1008.9
20260831081531 82 226 1.0 8.0 0.00 0.00 0.00 50 1009.0
20260831080024 83 60 1.0 7.0 0.00 0.00 0.00 49 1009.0
20260831074526 83 236 0.0 6.0 0.00 0.00 0.00 49 1008.8
20260831073021 83 156 2.0 6.0 0.00 0.00 0.00 48 1008.8
20260831071518 83 200 3.0 9.0 0.00 0.00 0.00 48 1008.9
20260831070021 84 235 2.0 7.0 0.00 0.00 0.00 47 1008.8
20260831064516 84 229 2.0 6.0 0.00 0.00 0.00 46 1008.8
20260831063013 85 295 2.0 8.0 0.00 0.00 0.00 46 1008.8
20260831061512 85 229 3.0 9.0 0.00 0.00 0.00 46 1008.8
20260831060009 85 226 3.0 10.0 0.00 0.00 0.00 46 1008.8
20260831054507 85 266 3.0 8.0 0.00 0.00 0.00 45 1008.6
20260831053020 86 154 2.0 8.0 0.00 0.00 0.00 45 1008.6
20260831051502 86 319 2.0 7.0 0.00 0.00 0.00 45 1008.5
20260831050100 87 276 2.0 7.0 0.00 0.00 0.00 44 1008.5